• Join FlightAware (Why Join?)
  • Login
  • US Flag GB Flag 
22:44 EDT


 

Airport Tracker/Info


-or-


 

Live Flight TrackerFlight Track Log ✈ N678MB ✈ 03-May-2013 ✈ KGAI - KOXB

Flight Track Log - Related Links

Times and Time Zones

All times are in EDT time to prevent confusion due to time zone crossing. See the N678MB flight status page for this flight to view local times or setup timezone preferences in your user account.

Time Position Orientation Groundspeed Altitude Reporting Facility
EDT Latitude Longitude Course Direction KTS MPH feet Rate Location/Type
14:25 39.1667 -77.1167 109° East 176 203 2,900  Level Potomac TRACON
14:26 39.2000 -77.0667 49° Northeast 176 203 6,300 2,040 Climbing Potomac TRACON
14:27 39.2333 -77.0167 49° Northeast 209 241 7,000 120 Climbing Potomac TRACON
14:29 39.1905 -76.9264 90° East  Level Estimated
14:30 39.0603 -76.7996 109° East  Level FlightAware Approximate
14:30 39.3167 -76.8000 90° East 253 291 7,000  Level Potomac TRACON
14:31 39.2667 -76.7333 134° Southeast 255 293 7,000  Level Potomac TRACON
14:32 39.2167 -76.6667 134° Southeast 270 311 7,000  Level Potomac TRACON
14:33 39.1667 -76.6000 134° Southeast 270 311 7,000  Level Potomac TRACON
14:35 39.1187 -76.5155 126° Southeast  Level Estimated
14:37 38.9667 -76.3333 126° Southeast 263 303 7,000  Level Potomac TRACON
14:37 38.9364 -76.2936 134° Southeast 262 302 7,000  Level Washington Center
14:38 38.8992 -76.2425 133° Southeast 262 302 7,000  Level Washington Center
14:39 38.8494 -76.1781 135° Southeast 259 298 7,000  Level Washington Center
14:40 38.7956 -76.1056 134° Southeast 260 299 7,000  Level Washington Center
14:41 38.7458 -76.0414 135° Southeast 260 299 7,000  Level Washington Center
14:42 38.9104 -76.1511 126° Southeast  Level Estimated
14:42 38.6958 -75.9747 134° Southeast 262 302 7,000  Level Washington Center
14:43 38.6503 -75.9028 129° Southeast 260 299 7,000  Level Washington Center
14:44 38.6150 -75.8150 117° Southeast 257 296 7,000  Level Washington Center
14:45 38.5756 -75.7297 121° Southeast 257 296 7,000 -60 Level Washington Center
14:46 38.5464 -75.6581 117° Southeast 254 292 6,900 -1,080 Descending Washington Center
14:47 38.5108 -75.5811 121° Southeast 248 285 5,000 -1,800 Descending Washington Center
14:48 38.4817 -75.5122 118° Southeast 232 267 3,400 -1,020 Descending Washington Center
14:49 38.4461 -75.4381 121° Southeast 225 259 3,000 -240 Descending Washington Center
14:50 38.4211 -75.3744 117° Southeast 224 258 3,000  Level Washington Center